Вернуться в каталог

STARLINK-5503

АктивенСвязьVLEO
NORAD 57257·PAYLOAD·🇺🇸 United States

Запущен Jul 7, 2023 с Vandenberg Space Force Base

Loading…

Ближайшие Пролёты (ближайшие 24 часа)

TLE

СвежийSource: CelesTrak SupGP

Эпоха: Sep 14, 2026, 21:07 UTC

1 57257C 23094AR  26257.88034722  .00042887  00000+0  15533-2 0  2574
2 57257  43.0025  31.4221 0001369 271.2626 116.9189 15.27559730    10

Отслеживайте STARLINK-5503 в реальном времени с AllMySat

Download on the App Store